轨道通信卫星FM108星 (ORBCOMM FM108)

导读

ORBCOMM FM 108是美国Orbcomm公司运营的低轨通信卫星,于2015年12月22日发射,属于Orbcomm系列近地轨道小型卫星移动通信系统的组成部分。该卫星主要承担全球短数据通信、远程工业监测、资产跟踪等服务,依托低轨星座网络,可实现全球覆盖的机器物联网通信,帮助用户随时随地连接偏远地区设备,支持环境监测、物流跟踪等多种物联网应用场景,是Orbcomm第二代低轨通信卫星组网的重要卫星。

基本信息
目录编号:
41187
目录名称:
ORBCOMM FM 108
国际标识:
2015-081J
轨道中心:
EARTH
卫星名称:
轨道通信卫星FM108星
卫星全名:
轨道通信卫星FM108星 (ORBCOMM FM108)
卫星状态:
在轨 (已飞行3825 天)
发射日期:
2015-12-22 UTC
国别 :
(ORB)
星等 :
--
轨道信息
数据来源 国际轨道数据 AOE轨道数据
星历时间 2026-06-11T17:32:13+0800
1天前
查看轨道信息
2026-06-11T05:00:00+0800
1天前
查看轨道信息
半长轴 7074.98km 7074.982km
偏心率 0.000265 0.0003136
轨道倾角 47.005° 47.001°
近地点辐角 198.891° 193.031°
升交点赤经 209.572° 212.037°
平近点角 161.187° 301.189°
近地点 694.968km 694.626km
远地点 698.718km 699.064km
周期 98.707分钟 98.707分钟
每日圈数 14.588645 14.588641
详细信息
固有亮度:
8
最大亮度:
6.7
平衡模式:
三轴稳定
覆盖范围:
全球
运营商:
轨道通信公司
运营商所在国:
美国
使用方式:
暂无
卫星简介
轨道通信FM(Orbcomm FM)是一系列低地球轨道通信卫星,由美国卫星通信公司 Orbcomm运营。 截至2015年12月,已有63颗此类卫星绕地球运行。该卫星仍在工作。
2D轨道图
3D轨道图
轨道高度分析图
轨道倾角分析图
轨道综合分析图
查看轨道综合分析图